Location: Clanezzo
(45.7500°N, 9.6000°E)
Time: 01:23:13
(UTC+00:00)

Sich 1 Rocket - Pass Details

Date: 12 May 2021
Orbit: 615 x 653 km, 82.5° (Epoch: 23 June)

Event Time Altitude Azimuth Distance (km) Brightness Sun altitude
Rises 23:19:26 0° 353° (N) 2,978 8.4 -25.9°
Reaches altitude 10° 23:21:43 10° 355° (N) 2,059 7.3 -25.9°
Enters shadow 23:26:01 69° 50° (NE) 692 3.8 -25.8°
